カタログに戻る

CONTOUR

運用中科学HEO
NORAD 27457·PAYLOAD·🇺🇸 United States

打ち上げ Jul 3, 2002 から Cape Canaveral Space Force Station

Loading…

次のパス (今後24時間)

TLE

古いSource: Space-Track

元期: Aug 6, 2002, 16:59 UTC

1 27457U 02034A   02218.70833333 +.00000000 +00000-0 +00000-0 0  9997
2 27457 030.5521 190.6101 8915936 340.4630 356.7346 00.57921679000002

AllMySatでCONTOURをリアルタイム追跡

Download on the App Store